Stündliche Wetter Abadzekhskaya

Heute, 17 Juni, Donnerstag

Zeit Temperatur Niederschläge Wind Luftdruck Luftfeuchtigkeit
00:00 +19°C° 0.1 mm 1 m/S 705 mmHg 94%
01:00 +18°C° 0.1 mm 2 m/S 705 mmHg 95%
02:00 +18°C° 0.1 mm 2 m/S 705 mmHg 95%
03:00 +17°C° 0 mm 2 m/S 706 mmHg 95%
04:00 +17°C° 0.2 mm 2 m/S 706 mmHg 95%
05:00 +17°C° 0.2 mm 2 m/S 707 mmHg 95%
06:00 +19°C° 0.2 mm 1 m/S 708 mmHg 94%
07:00 +18°C° 0.3 mm 2 m/S 708 mmHg 91%
08:00 +19°C° 0.3 mm 2 m/S 709 mmHg 87%
09:00 +19°C° 0 mm 2 m/S 709 mmHg 84%
10:00 +21°C° 0.6 mm 2 m/S 710 mmHg 74%
11:00 +24°C° 0.6 mm 2 m/S 710 mmHg 64%
12:00 +25°C° 0.6 mm 3 m/S 711 mmHg 54%
13:00 +25°C° 0.5 mm 3 m/S 711 mmHg 53%
14:00 +25°C° 0.5 mm 3 m/S 711 mmHg 52%
15:00 +26°C° 0 mm 4 m/S 711 mmHg 51%
16:00 +25°C° 0.2 mm 3 m/S 712 mmHg 56%
17:00 +24°C° 0.2 mm 3 m/S 712 mmHg 61%
18:00 +22°C° 0.2 mm 3 m/S 712 mmHg 66%
19:00 +19°C° 0.1 mm 2 m/S 713 mmHg 74%
20:00 +17°C° 0.1 mm 2 m/S 713 mmHg 82%
21:00 +15°C° 0.1 mm 1 m/S 713 mmHg 90%
22:00 +15°C° 0 mm 1 m/S 713 mmHg 91%
23:00 +14°C° 0 mm 1 m/S 713 mmHg 92%

Morgen, 18 Juni, Freitag

Zeit Temperatur Niederschläge Wind Luftdruck Luftfeuchtigkeit
00:00 +14°C° 0 mm 1 m/S 714 mmHg 92%
01:00 +14°C° 0 mm 1 m/S 713 mmHg 91%
02:00 +14°C° 0 mm 1 m/S 713 mmHg 90%
03:00 +13°C° 0 mm 1 m/S 713 mmHg 89%
04:00 +14°C° 0 mm 1 m/S 713 mmHg 88%
05:00 +15°C° 0 mm 1 m/S 714 mmHg 86%
06:00 +15°C° 0 mm 1 m/S 714 mmHg 85%
07:00 +18°C° 0 mm 1 m/S 714 mmHg 78%
08:00 +19°C° 0 mm 2 m/S 714 mmHg 72%
09:00 +21°C° 0 mm 2 m/S 714 mmHg 65%
10:00 +23°C° 0 mm 2 m/S 714 mmHg 60%
11:00 +25°C° 0 mm 3 m/S 714 mmHg 55%
12:00 +26°C° 0 mm 3 m/S 714 mmHg 50%
13:00 +26°C° 0 mm 3 m/S 714 mmHg 51%
14:00 +26°C° 0 mm 4 m/S 714 mmHg 52%
15:00 +26°C° 0 mm 4 m/S 714 mmHg 53%
16:00 +25°C° 0 mm 3 m/S 713 mmHg 57%
17:00 +25°C° 0 mm 3 m/S 713 mmHg 61%
18:00 +24°C° 0 mm 3 m/S 713 mmHg 66%
19:00 +23°C° 0 mm 2 m/S 713 mmHg 74%
20:00 +20°C° 0 mm 2 m/S 713 mmHg 82%
21:00 +18°C° 0 mm 2 m/S 713 mmHg 90%
22:00 +18°C° 0 mm 2 m/S 713 mmHg 91%
23:00 +17°C° 0 mm 2 m/S 713 mmHg 91%

übermorgen, 19 Juni, Samstag

Zeit Temperatur Niederschläge Wind Luftdruck Luftfeuchtigkeit
00:00 +18°C° 0 mm 1 m/S 712 mmHg 92%
01:00 +16°C° 0 mm 1 m/S 712 mmHg 92%
02:00 +16°C° 0 mm 1 m/S 712 mmHg 91%
03:00 +16°C° 0 mm 1 m/S 712 mmHg 91%
04:00 +18°C° 0 mm 1 m/S 712 mmHg 89%
05:00 +18°C° 0 mm 1 m/S 712 mmHg 87%
06:00 +19°C° 0 mm 1 m/S 712 mmHg 85%
07:00 +20°C° 0 mm 2 m/S 712 mmHg 77%
08:00 +22°C° 0 mm 3 m/S 712 mmHg 69%
09:00 +26°C° 0 mm 3 m/S 712 mmHg 62%
10:00 +27°C° 0 mm 4 m/S 712 mmHg 59%
11:00 +28°C° 0 mm 5 m/S 711 mmHg 56%
12:00 +29°C° 0 mm 5 m/S 711 mmHg 53%
13:00 +29°C° 0 mm 5 m/S 711 mmHg 54%
14:00 +30°C° 0 mm 6 m/S 711 mmHg 55%
15:00 +30°C° 0 mm 6 m/S 710 mmHg 56%
16:00 +29°C° 0 mm 6 m/S 710 mmHg 60%
17:00 +28°C° 0 mm 5 m/S 710 mmHg 64%
18:00 +28°C° 0 mm 5 m/S 710 mmHg 68%
19:00 +26°C° 0 mm 4 m/S 710 mmHg 71%
20:00 +25°C° 0 mm 4 m/S 710 mmHg 75%
21:00 +22°C° 0 mm 4 m/S 709 mmHg 78%
22:00 +21°C° 0 mm 3 m/S 709 mmHg 80%
23:00 +21°C° 0 mm 2 m/S 709 mmHg 82%

20 Juni, Sonntag

Zeit Temperatur Niederschläge Wind Luftdruck Luftfeuchtigkeit
00:00 +20°C° 0 mm 2 m/S 709 mmHg 85%
01:00 +20°C° 0 mm 2 m/S 709 mmHg 86%
02:00 +20°C° 0 mm 1 m/S 709 mmHg 88%
03:00 +20°C° 0 mm 1 m/S 709 mmHg 89%
04:00 +20°C° 0 mm 1 m/S 709 mmHg 89%
05:00 +20°C° 0 mm 1 m/S 710 mmHg 89%
06:00 +21°C° 0 mm 1 m/S 710 mmHg 89%
07:00 +22°C° 0 mm 1 m/S 710 mmHg 82%
08:00 +24°C° 0 mm 1 m/S 710 mmHg 74%
09:00 +26°C° 0 mm 1 m/S 711 mmHg 67%
10:00 +27°C° 0 mm 2 m/S 711 mmHg 62%
11:00 +28°C° 0 mm 2 m/S 711 mmHg 58%
12:00 +30°C° 0 mm 2 m/S 711 mmHg 54%
13:00 +30°C° 0.1 mm 2 m/S 711 mmHg 54%
14:00 +30°C° 0.1 mm 2 m/S 711 mmHg 55%
15:00 +30°C° 0.1 mm 2 m/S 711 mmHg 55%
16:00 +29°C° 0.1 mm 2 m/S 711 mmHg 59%
17:00 +29°C° 0.1 mm 1 m/S 711 mmHg 62%
18:00 +28°C° 0.1 mm 1 m/S 711 mmHg 66%
19:00 +26°C° 0 mm 1 m/S 711 mmHg 73%
20:00 +24°C° 0 mm 1 m/S 710 mmHg 81%
21:00 +23°C° 0 mm 1 m/S 710 mmHg 88%
22:00 +22°C° 0 mm 1 m/S 710 mmHg 90%
23:00 +22°C° 0 mm 1 m/S 710 mmHg 91%

21 Juni, Montag

Zeit Temperatur Niederschläge Wind Luftdruck Luftfeuchtigkeit
00:00 +21°C° 0 mm 1 m/S 710 mmHg 92%
01:00 +21°C° 0 mm 1 m/S 709 mmHg 92%
02:00 +21°C° 0 mm 1 m/S 709 mmHg 93%
03:00 +21°C° 0 mm 1 m/S 709 mmHg 93%
04:00 +21°C° 0 mm 1 m/S 709 mmHg 91%
05:00 +22°C° 0 mm 1 m/S 709 mmHg 90%
06:00 +22°C° 0 mm 1 m/S 709 mmHg 88%
07:00 +24°C° 0 mm 1 m/S 709 mmHg 81%
08:00 +26°C° 0 mm 1 m/S 709 mmHg 73%
09:00 +28°C° 0 mm 1 m/S 709 mmHg 66%
10:00 +29°C° 0 mm 2 m/S 709 mmHg 62%
11:00 +31°C° 0 mm 2 m/S 709 mmHg 58%
12:00 +32°C° 0 mm 2 m/S 709 mmHg 55%
13:00 +31°C° 0.3 mm 2 m/S 709 mmHg 58%
14:00 +31°C° 0.3 mm 2 m/S 709 mmHg 61%
15:00 +30°C° 0.3 mm 3 m/S 709 mmHg 65%
16:00 +30°C° 0.4 mm 2 m/S 709 mmHg 68%
17:00 +29°C° 0.4 mm 2 m/S 710 mmHg 71%
18:00 +28°C° 0.4 mm 1 m/S 710 mmHg 74%
19:00 +27°C° 0.1 mm 1 m/S 710 mmHg 79%
20:00 +25°C° 0.1 mm 1 m/S 710 mmHg 85%
21:00 +24°C° 0.1 mm 1 m/S 710 mmHg 90%
22:00 +23°C° 0 mm 1 m/S 710 mmHg 91%
23:00 +23°C° 0 mm 1 m/S 710 mmHg 92%

22 Juni, Dienstag

Zeit Temperatur Niederschläge Wind Luftdruck Luftfeuchtigkeit
00:00 +22°C° 0 mm 1 m/S 709 mmHg 93%
01:00 +22°C° 0 mm 1 m/S 710 mmHg 94%
02:00 +22°C° 0 mm 1 m/S 710 mmHg 95%
03:00 +21°C° 0 mm 1 m/S 710 mmHg 96%
04:00 +22°C° 0.1 mm 1 m/S 710 mmHg 95%
05:00 +22°C° 0.1 mm 1 m/S 710 mmHg 95%
06:00 +20°C° 0.1 mm 0 m/S 710 mmHg 94%
07:00 +23°C° 0 mm 1 m/S 710 mmHg 88%
08:00 +25°C° 0 mm 1 m/S 711 mmHg 82%
09:00 +26°C° 0 mm 1 m/S 711 mmHg 76%
10:00 +27°C° 0 mm 1 m/S 711 mmHg 72%
11:00 +28°C° 0 mm 2 m/S 711 mmHg 69%
12:00 +28°C° 0 mm 2 m/S 711 mmHg 66%
13:00 +28°C° 0.1 mm 2 m/S 711 mmHg 67%
14:00 +28°C° 0.1 mm 2 m/S 711 mmHg 68%
15:00 +28°C° 0.1 mm 2 m/S 711 mmHg 69%
16:00 +28°C° 0.1 mm 2 m/S 711 mmHg 71%
17:00 +28°C° 0.1 mm 1 m/S 711 mmHg 72%
18:00 +27°C° 0.1 mm 1 m/S 711 mmHg 74%
19:00 +26°C° 0 mm 1 m/S 711 mmHg 80%
20:00 +24°C° 0 mm 1 m/S 711 mmHg 85%
21:00 +23°C° 0 mm 1 m/S 711 mmHg 91%
22:00 +22°C° 0.3 mm 1 m/S 711 mmHg 92%
23:00 +22°C° 0.3 mm 1 m/S 711 mmHg 94%
Mehr zeigen

Wir brauchen deine Erlaubnis

Meteoprog und unser Service Anbieter werden persönliche Daten aufbewahren, so wie Cookies, Geräte Bezeichnung oder ähnliche Technologien von deinem Gerät und Prozess, so wie Persönliche Daten Inhalte und Werbungen, genauso wie social Media und den Verkehr zu analysieren.

  • Aufbewahrung und/oder Zugang zu deiner Geräte Informationen.

    Cookies, Geräte Bezeichnung oder andere Informationen, können aufbewahrt oder Zugang zu deinem Gerät erhalten, für den Grund, der oben angegeben wird.

  • Personalisierte Werbung und Inhalte, Messungen, Einblick in das Publikum und Produkt Entwicklung.

    Werbungen und Inhalte können personalisiert werden, basierend auf ein Profil. Mehr Daten können besser personalisierte Werbungen und Inhalte hinzufügen. Werbung und Inhalte können gezeigt und gemessen werden. Einblicke über das Publikum, welche die Werbung gesehen haben und den Inhalt, können abgeleitet werden. So wie Daten können genutzt werden, um es zu verbessern oder die Benutzer Erfahrung zu verbessern das System und die Software.

Wenn du “Ich stimme zu” klickst, erlaubst du uns, die Cookies zu benutzen die Geräte Bezeichnung, den Web oder ähnliche Technologien zu benutzen. Deine Settings, können in deinem Gerät bei deinem Browser geändert werden.

Für den bestimmten Zweck, berechtigten Interessen beruhen darauf, mehr als auf den Inhalt. Du kannst mehr darüber in unseren Privaten und Cookie Politik lesen.